Location: Unspecified
(0.0000°N, 0.0000°E)
Time: 23:45:58
(UTC+00:00)

Vanguard 2 - Pass Details

Date: 03 October 2020
Orbit: 554 x 2937 km, 32.9° (Epoch: 28 October)

Event Time Altitude Azimuth Distance (km) Brightness Sun altitude
Rises 01:17:33 0° 249° (WSW) 6,737 - -67.5°
Reaches altitude 10° 01:22:37 10° 255° (WSW) 5,578 - -66.3°
Maximum altitude 01:37:32 44° 321° (NW) 2,794 - -62.6°
Drops below altitude 10° 01:47:31 10° 31° (NNE) 3,787 - -60.1°
Exits shadow 01:49:52 - 37° (NE) 4,364 11.6 -59.5°
Sets 01:50:18 0° 38° (NE) 4,477 11.6 -59.4°
